| time (UTC) | temp F | wind direction | speed MPH | gust MPH | rain 1hr in | rain 24hr in | rain mn in | humidity % | barometer mb |
| 20260504070104 | 57 | 320 | 6.0 | 0.0 | 0.00 | 0.00 | 0.00 | 58 | 1014.0 |
| 20260504060211 | 55 | 310 | 5.0 | 0.0 | 0.00 | 0.00 | 0.00 | 62 | 1013.0 |
| 20260504050211 | 52 | 10 | 6.0 | 0.0 | 0.00 | 0.00 | 0.00 | 66 | 1013.0 |
| 20260504043103 | 50 | 0 | 1.0 | 0.0 | 0.00 | 0.00 | 0.00 | 71 | 1013.0 |
| 20260504041854 | 52 | 320 | 2.0 | 0.0 | 0.00 | 0.00 | 0.00 | 62 | |
| 20260504040103 | 52 | 0 | 1.0 | 0.0 | 0.00 | 0.00 | 0.00 | 66 | 1013.0 |
| 20260504033209 | 54 | 0 | 2.0 | 0.0 | 0.00 | 0.00 | 0.00 | 62 | 1013.0 |
| 20260504031851 | 54 | 160 | 5.0 | 0.0 | 0.00 | 0.00 | 0.00 | 58 | |
| 20260504023103 | 54 | 100 | 7.0 | 0.0 | 0.00 | 0.00 | 0.00 | 62 | 1013.0 |
| 20260504021853 | 52 | 60 | 2.0 | 0.0 | 0.00 | 0.00 | 0.00 | 66 | |
| 20260504020212 | 54 | 60 | 3.0 | 0.0 | 0.00 | 0.00 | 0.00 | 62 | 1013.0 |
| 20260504013103 | 54 | 50 | 5.0 | 0.0 | 0.00 | 0.00 | 0.00 | 62 | 1013.0 |
| 20260504011851 | 55 | 40 | 5.0 | 0.0 | 0.00 | 0.00 | 0.00 | 58 | |
| 20260504003103 | 57 | 60 | 7.0 | 0.0 | 0.00 | 0.00 | 0.00 | 54 | 1012.0 |
| 20260504001852 | 57 | 40 | 7.0 | 0.0 | 0.00 | 0.00 | 0.00 | 54 | |
| 20260504000212 | 57 | 40 | 6.0 | 0.0 | 0.00 | 0.00 | 0.00 | 54 | 1013.0 |
| 20260503233102 | 59 | 50 | 7.0 | 0.0 | 0.00 | 0.00 | 0.00 | 51 | 1012.0 |
| 20260503231854 | 59 | 110 | 7.0 | 0.0 | 0.00 | 0.00 | 0.00 | 51 | |
| 20260503230103 | 61 | 110 | 7.0 | 0.0 | 0.00 | 0.00 | 0.00 | 48 | 1012.0 |
| 20260503223103 | 63 | 100 | 6.0 | 0.0 | 0.00 | 0.00 | 0.00 | 45 | 1012.0 |
| 20260503221853 | 63 | 130 | 5.0 | 0.0 | 0.00 | 0.00 | 0.00 | 42 | |
| 20260503220103 | 64 | 140 | 5.0 | 0.0 | 0.00 | 0.00 | 0.00 | 42 | 1012.0 |
| 20260503213102 | 64 | 170 | 9.0 | 0.0 | 0.00 | 0.00 | 0.00 | 42 | 1012.0 |
| 20260503211853 | 64 | 160 | 9.0 | 0.0 | 0.00 | 0.00 | 0.00 | 42 | |
| 20260503210104 | 66 | 160 | 9.0 | 0.0 | 0.00 | 0.00 | 0.00 | 39 | 1012.0 |
| 20260503203103 | 66 | 150 | 8.0 | 0.0 | 0.00 | 0.00 | 0.00 | 39 | 1012.0 |
| 20260503201851 | 66 | 130 | 7.0 | 0.0 | 0.00 | 0.00 | 0.00 | 37 | |
| 20260503193102 | 68 | 120 | 8.0 | 0.0 | 0.00 | 0.00 | 0.00 | 34 | 1012.0 |
| 20260503191850 | 68 | 120 | 9.0 | 0.0 | 0.00 | 0.00 | 0.00 | 34 | |
| 20260503190210 | 68 | 120 | 9.0 | 0.0 | 0.00 | 0.00 | 0.00 | 34 | 1012.0 |
| 20260503183103 | 70 | 120 | 10.0 | 0.0 | 0.00 | 0.00 | 0.00 | 32 | 1012.0 |
| 20260503181853 | 70 | 120 | 9.0 | 0.0 | 0.00 | 0.00 | 0.00 | 32 | |
| 20260503173103 | 75 | 130 | 10.0 | 0.0 | 0.00 | 0.00 | 0.00 | 27 | 1012.0 |
| 20260503171851 | 75 | 120 | 12.0 | 0.0 | 0.00 | 0.00 | 0.00 | 27 | |
| 20260503170210 | 77 | 120 | 10.0 | 0.0 | 0.00 | 0.00 | 0.00 | 23 | 1012.0 |
| 20260503160104 | 79 | 130 | 9.0 | 0.0 | 0.00 | 0.00 | 0.00 | 22 | 1012.0 |
| 20260503150103 | 79 | 130 | 8.0 | 0.0 | 0.00 | 0.00 | 0.00 | 22 | 1012.0 |
| 20260503130210 | 77 | 130 | 8.0 | 0.0 | 0.00 | 0.00 | 0.00 | 22 | 1014.0 |
| 20260503100210 | 73 | 0 | 8.0 | 0.0 | 0.00 | 0.00 | 0.00 | 27 | 1016.0 |